Location: Bandys
(35.4750°N, 81.0830°W)
Time: 16:46:57
(UTC-04:00)

Daily predictions for brighter satellites

Satellite Brightness Start Highest point End
(mag) Time Altitude Azimuth Time Altitude Azimuth Time Altitude Azimuth
Delta 2 Rocket 3.8 20:01:04 10° W 20:06:06 72° SSW 20:10:29 10° ESE
METEOR-M 4.2 20:03:57 10° SSE 20:09:18 86° WSW 20:14:40 10° NNW
COSMOS 2406 3.8 20:05:49 10° NNW 20:11:29 64° WSW 20:17:07 10° S
Cosmos 1125 Rocket 4.2 20:08:05 10° SSE 20:12:38 32° E 20:17:12 10° NE
Resurs 01 Rocket 2.4 20:09:21 10° SE 20:13:17 32° ENE 20:17:13 10° N
Meteor 2-5 Rocket 4.1 20:08:11 10° NNW 20:13:55 74° W 20:19:45 10° S
Cosmos 1766 3.2 20:10:40 10° S 20:14:30 67° E 20:18:22 10° NNE
Cosmos 1605 Rocket 4.2 20:12:36 10° SSE 20:18:37 53° E 20:24:45 10° NNE
Geosat 4.5 20:17:32 10° NE 20:22:12 38° ESE 20:26:49 10° S
HJ-1C 3.3 20:24:22 10° SSE 20:27:44 67° ENE 20:31:08 10° N
SeaSat 1 2.5 20:23:03 10° SE 20:27:54 64° ENE 20:32:47 10° NNW
Cosmos 1674 4.3 20:28:45 10° NE 20:31:13 16° ENE 20:31:53 16° E
Cosmos 2123 Rocket 4.0 20:29:40 10° N 20:36:00 77° E 20:42:15 10° S
SL-27 R/B 2.8 20:34:42 10° NNW 20:38:17 69° WSW 20:41:53 10° S
Cosmos 2344 4.3 20:32:36 10° SW 20:40:09 59° NW 20:48:27 10° NNE
RESURS DK-1 2.5 20:36:11 10° NNW 20:40:19 76° WSW 20:44:25 10° SSE
CZ-2D R/B 3.5 20:38:14 10° SSE 20:41:56 47° ENE 20:45:41 10° N
CZ-3B DEB 4.3 20:33:11 10° WSW 20:44:34 42° NW 20:50:05 10° NNE
Cosmos 1805 3.1 20:42:36 10° S 20:46:29 84° E 20:50:24 10° N
Meteor 1-29 3.8 20:44:38 10° NE 20:47:41 28° E 20:48:19 26° ESE
In-Cosmos 22 4.0 20:42:36 10° N 20:47:56 83° E 20:53:12 10° S
GPS 2-05 Rocket1 2.9 20:46:19 10° WSW 20:49:50 62° SSE 20:51:22 30° E
ALOS 3.0 20:46:38 10° S 20:51:12 56° W 20:55:49 10° NNW
Cosmos 1818 3.8 20:46:11 10° NNW 20:51:29 50° ENE 20:54:41 23° ESE
Cosmos 1153 Rocket 4.5 20:45:38 10° S 20:51:57 68° E 20:58:19 10° NNE
COSMOS 2487 3.5 20:50:01 10° N 20:53:07 27° ENE 20:53:16 27° ENE
Resurs 1-3 3.5 20:49:13 10° SSE 20:53:35 80° ENE 20:57:59 10° N
Meteor 1-4 Rocket 2.4 20:54:26 10° S 20:57:54 84° W 21:01:24 10° N
Yuri Rocket 4.4 20:54:28 10° WSW 20:58:03 25° S 20:59:42 20° SSE
Cosmos 1269 Rocket 4.3 20:53:02 10° N 20:58:07 46° ENE 21:00:49 25° SE
Timation 1 Rocket 4.5 20:52:56 10° SSW 20:58:56 78° WNW 21:04:59 10° NNE
FENGYUN 3A 4.4 20:55:25 10° S 21:00:41 53° W 21:05:58 10° NNW
Cosmos 1470 3.1 21:00:37 25° SSE 21:02:31 43° E 21:06:18 10° NNE
Timation 2 Rocket 4.4 20:57:06 10° N 21:02:59 40° ENE 21:05:26 28° ESE
Cosmos 1833 Rocket 3.1 20:58:09 10° N 21:03:29 42° ENE 21:05:39 30° ESE
Cosmos 468 4.4 20:59:24 10° NNW 21:04:40 81° ENE 21:08:48 17° SSE
Cosmos 2278 Rocket 3.8 21:00:57 10° SW 21:06:08 36° WNW 21:11:22 10° N
Cosmos 1408 Rocket 3.7 21:01:46 10° N 21:06:08 50° E 21:07:46 33° SE
Cosmos 1544 4.1 21:02:48 10° SSW 21:06:19 48° W 21:09:52 10° N
Cosmos 372 Rocket 3.8 21:05:04 10° SSW 21:10:10 87° ESE 21:15:20 10° NNE
Spot 1 4.2 21:07:43 23° SSE 21:10:32 70° ENE 21:15:24 10° N
CZ-4B DEB 4.0 21:12:04 29° NNE 21:12:04 29° NNE 21:13:55 10° N
Cosmos 2098 Rocket 4.4 21:04:20 10° S 21:11:25 85° W 21:19:06 10° N
Cosmos 1733 3.2 21:11:00 48° SE 21:11:32 53° E 21:15:20 10° NNE
Cosmos 1459 Rocket 4.0 21:06:12 10° SSE 21:12:17 56° E 21:18:19 10° NNE
Cosmos 1340 Rocket 3.8 21:09:21 10° NNE 21:12:09 30° NE 21:12:09 30° NE
Cosmos 1447 Rocket 4.4 21:07:54 10° N 21:14:04 86° E 21:20:14 10° S
Delta 128 4.5 21:10:28 10° WSW 21:14:28 32° S 21:15:07 30° SSE
ATLAS 5 CENTAUR R/B 1.6 21:12:45 10° SSW 21:17:22 90° SE 21:22:22 10° NNE
Cosmos 2173 Rocket 3.9 21:12:01 10° S 21:18:02 61° E 21:24:11 10° NNE
ISS -3.8 21:15:07 10° SW 21:18:21 78° NW 21:18:25 78° NNW
USA 215 3.1 21:12:46 10° NE 21:19:17 71° SE 21:25:46 10° SW
H-2A R/B 4.5 21:17:16 10° SSW 21:20:47 33° W 21:24:22 10° NNW
Cosmos 158 Rocket 3.9 21:16:07 10° N 21:21:14 63° ENE 21:22:45 44° SE
H-II Stage 2 3.3 21:19:52 10° SW 21:20:30 16° SW 21:20:30 16° SW
Cosmos 2297 4.2 21:16:15 10° SSW 21:21:53 61° WNW 21:27:34 10° NNE
Cosmos 1867 4.3 21:19:05 10° SW 21:24:23 53° WNW 21:29:45 10° NNE
Tiangong 1 2.8 21:23:53 10° W 21:25:54 24° SW 21:25:54 24° SW
Aurora 2 Rocket 4.2 21:21:54 10° WSW 21:27:25 27° S 21:28:04 26° S
Abrixas 4.1 21:25:18 10° NW 21:26:58 30° NW 21:26:58 30° NW
Helios 1B rocket 3.3 21:30:01 10° N 21:34:01 50° WNW 21:37:58 10° SSW
Cosmos 1076 Rocket 4.5 21:31:11 10° NNW 21:35:14 45° W 21:38:07 18° SSW
Cosmos 1953 4.5 21:35:46 10° SW 21:39:15 27° WNW 21:42:44 10° NNW
Cosmos 2082 Rocket 2.2 21:33:42 10° NNW 21:39:25 83° WSW 21:41:10 46° SSE
Meteor 2-17 Rocket 4.3 21:40:14 39° SSE 21:42:33 68° E 21:48:40 10° NNE
GP-B 4.0 21:40:05 13° SSW 21:43:52 46° W 21:48:09 10° NNW
Envisat 2.9 21:42:59 56° S 21:44:06 84° WSW 21:49:12 10° NNW
Meteor 1-16 Rocket 4.2 21:44:16 62° E 21:44:22 62° E 21:50:13 10° NNE
Cosmos 1939 Rocket 3.4 21:45:32 55° N 21:45:32 55° N 21:48:51 10° NNW
Helios 1A 4.0 21:43:23 31° SSW 21:44:52 44° W 21:48:53 10° NNW
Cosmos 1271 Rocket 3.8 21:45:01 16° SSW 21:47:56 45° W 21:51:49 10° N
Resurs 01 Rocket 4.2 21:46:39 10° SW 21:49:46 19° W 21:52:55 10° NW
Cosmos 2016 Rocket 3.8 21:47:02 36° S 21:49:47 80° E 21:55:58 10° N
H-2A R/B 4.4 21:52:51 12° NNE 21:52:51 12° NNE 21:53:25 10° NNE
Cosmos 1725 Rocket 4.2 21:59:09 53° NE 21:59:09 53° NE 22:04:05 10° NNE
ERS-1 Rocket 3.5 22:03:22 51° N 22:03:22 51° N 22:07:08 10° N
Lacrosse 5 rocket 3.4 22:00:57 10° NNW 22:02:25 21° NNW 22:02:25 21° NNW
SL-08 R/B 4.5 22:10:08 68° SSW 22:11:02 83° W 22:17:29 10° N
Tsikada Rocket 4.4 22:12:49 10° N 22:17:28 51° NNE 22:17:28 51° NNE
